Vertical_Velocity
-0 -0 -0 0 0 1 1 1 1 1 1 1 1 2 2 2 1 1 1 1 1 0 -0 -0 -1 -1 -1 -1 -1 -1 -0 0 1 1 1 1 1 2 2 2 2 2 1 0 1 1 2 3 2 1 0 1 3 3 2 0 -0 -1 -1 -2 -2 -1 1 3 2 2 0 -1 0
-1 -1 -0 -0 -0 0 0 1 1 1 1 1 1 1 1 1 1 1 1 0 0 -0 -1 -1 -2 -2 -2 -2 -1 -1 -1 -0 0 0 1 1 2 2 2 1 1 1 1 1 2 2 1 -0 1 3 4 5 4 3 2 1 1 0 -1 -2 -1 1 4 5 2 -0 -1 -1 3
-1 -1 -1 -1 -0 -0 0 0 0 1 1 1 1 1 1 1 0 0 0 0 -0 -1 -1 -2 -2 -2 -2 -2 -2 -1 -1 -1 -1 -0 1 1 2 2 2 1 0 1 1 2 3 1 -1 -3 1 5 6 5 4 2 2 1 1 -0 -1 -1 2 4 5 2 -1 -2 -2 -0 1
-2 -2 -2 -1 -1 -0 -0 0 0 1 1 1 1 1 1 0 0 0 0 -0 -0 -1 -2 -2 -2 -2 -2 -1 -1 -1 -1 -1 -1 -0 0 1 2 2 2 2 2 2 1 -2 -2 -0 1 -0 1 3 5 4 2 1 1 1 1 0 0 2 3 3 2 -0 -2 -3 -2 -1 1
-2 -2 -2 -2 -1 -1 -1 -0 0 1 1 1 1 0 0 0 0 0 -0 -0 -0 -1 -1 -1 -1 -1 -1 -1 -0 -0 -0 -0 -0 -0 -0 0 1 2 3 3 4 3 2 1 2 3 3 -0 -0 1 2 1 1 -0 -0 1 1 -0 -1 0 -0 -2 -3 -5 -4 -1 3 6 6
-2 -2 -2 -2 -1 -1 -1 -0 0 0 1 0 0 0 0 0 0 0 -0 -0 0 0 0 -0 0 0 0 0 0 0 0 0 0 0 0 0 1 2 2 3 3 2 2 2 3 2 0 -3 -1 0 1 -1 -2 -0 2 2 0 -1 -2 -2 -3 -4 -3 -1 2 5 7 6 5
-1 -1 -1 -1 -1 -1 -0 -0 -0 0 0 -0 -0 0 0 1 0 0 0 0 1 1 1 1 1 1 1 1 1 1 1 1 2 2 1 1 1 1 2 2 2 1 1 1 0 -1 -2 -2 1 1 -0 -4 -2 2 5 3 1 1 2 3 3 5 6 7 8 6 3 1 -0
-0 -0 -0 -0 -0 -0 -0 -0 -0 -0 -0 -0 -0 0 0 0 0 0 0 0 1 1 1 1 1 1 1 1 1 1 1 2 2 2 2 2 2 1 1 1 1 0 -0 -2 0 2 2 1 1 0 -2 -4 1 3 4 2 2 3 4 6 6 7 6 5 3 1 0 -1 -1
0 0 1 1 1 0 0 0 0 0 0 0 0 0 0 0 1 0 0 0 1 1 1 1 1 1 1 1 1 1 1 1 1 2 2 2 1 1 1 1 1 -0 -2 -3 0 3 3 3 2 1 0 -0 2 2 2 1 1 1 2 2 1 0 -0 -0 -0 -0 -1 -1 -1
1 1 1 1 1 1 1 1 1 1 1 1 1 1 1 1 1 1 0 -0 0 0 0 0 0 0 0 0 0 0 0 1 1 1 1 1 1 1 0 0 -0 -1 -2 -3 -1 1 1 1 1 1 1 2 2 1 1 1 1 0 -0 -1 -1 -1 -0 0 0 -0 -1 -1 -2
1 1 1 2 2 1 1 1 1 1 1 1 1 1 1 1 1 1 0 -0 -0 0 0 1 0 0 -0 -0 -0 -0 0 0 1 1 1 1 1 1 0 0 -0 -1 -1 -0 1 1 1 1 1 2 2 2 2 2 1 1 0 -0 -1 -1 -1 -0 -0 -0 -1 -1 -1 -1 -1
1 1 2 2 2 2 2 2 2 2 1 1 1 1 1 1 1 1 0 -0 -0 -0 0 0 0 -0 -0 0 0 0 1 1 1 1 2 2 2 2 2 2 2 2 2 3 2 1 1 0 0 1 1 1 1 0 -0 -1 -1 -1 -1 -1 -1 -0 -0 -1 -1 -1 -1 -1 -1
1 1 1 1 1 1 1 2 2 1 1 1 1 1 1 1 1 0 0 -0 -0 0 0 -0 -0 -0 -0 -0 0 1 1 1 1 1 1 2 2 2 2 2 2 2 2 2 1 1 0 0 0 0 0 -0 -0 -0 -0 -1 -1 -1 -1 -0 -0 -0 -0 -0 -1 -1 -1 -1 -1
1 1 1 1 1 1 1 1 1 1 1 1 1 1 1 1 0 0 0 0 0 0 0 -0 -1 -1 -1 -1 -0 -0 0 1 1 0 0 0 -0 -0 -0 -0 -0 -0 0 0 0 0 0 -0 -0 -0 -0 -0 -0 -0 -0 -0 -0 -0 -0 0 0 0 -0 -0 -1 -1 -1 -1 -0
0 0 0 0 0 1 1 1 1 1 1 1 1 1 1 1 0 0 0 0 0 -0 -0 -0 -1 -1 -1 -1 -1 -0 -0 -0 -0 -0 -0 -0 -1 -1 -1 -1 -1 -1 -1 -1 -1 -1 -1 -0 -0 -0 -0 -0 -0 -0 -0 0 0 0 0 0 -0 -0 -0 -0 -0 -0 -0 -0 -0
0 0 0 0 0 0 0 1 1 1 0 1 1 1 1 1 1 0 0 0 -0 -0 -1 -1 -1 -1 -1 -1 -1 -1 -1 -1 -1 -1 -0 -0 -1 -1 -1 -1 -1 -2 -2 -2 -2 -2 -1 -0 -0 0 0 0 0 0 0 1 0 0 -0 -0 -0 -0 -0 -0 -0 -0 -0 0 0
0 0 0 0 0 0 0 0 0 0 0 0 0 0 1 1 1 0 0 -0 -0 -0 -1 -1 -1 -1 -1 -1 -1 -1 -1 -1 -1 -1 -1 -1 -1 -1 -1 -0 -1 -2 -2 -2 -2 -1 -1 -1 -0 0 0 0 0 1 1 0 0 0 -0 -0 -0 -0 -0 -0 -0 -0 0 0 0
-0 -0 -0 -0 -0 -0 -0 0 -0 -0 -0 -0 -0 -0 -0 0 -0 -0 -0 -0 0 0 -0 -1 -0 -0 -1 -1 -1 -1 -1 -1 -2 -1 -1 -1 -1 -1 -1 -0 -1 -1 -1 -1 -1 -1 -1 -0 0 0 0 0 0 0 0 0 0 0 0 -0 -0 -0 -0 -0 0 0 0 0 0
-0 -0 -0 -0 -0 -0 -0 -0 -1 -1 -1 -1 -1 -1 -1 -1 -1 -1 -1 -1 -0 0 -0 -1 -1 -0 -0 -1 -1 -1 -1 -2 -2 -2 -1 -1 -2 -2 -1 -1 -1 -1 -0 -1 -1 -0 -0 -0 0 0 0 0 0 0 0 0 0 0 0 0 0 0 0 0 0 0 0 0 0
0 -0 -0 -0 -0 -0 -0 -1 -1 -1 -1 -1 -1 -1 -1 -1 -0 -1 -1 -2 -1 -0 -0 -1 -1 -1 -1 -1 -1 -2 -2 -2 -2 -2 -2 -2 -2 -2 -1 -1 -1 -0 -0 -0 -0 -0 -0 -0 -0 -0 0 0 0 0 0 0 0 0 0 0 0 0 0 0 0 0 0 0 0
0 -0 -0 -0 -0 -0 -1 -1 -1 -1 -1 -1 -1 -1 -1 -0 -0 -0 -1 -1 -1 -0 -0 -1 -1 -1 -1 -1 -2 -2 -2 -2 -1 -1 -2 -2 -1 -2 -1 -1 -1 -0 0 0 -0 -0 -0 -0 -0 -0 0 0 0 0 0 0 0 0 0 0 0 0 0 0 0 0 1 1 0
0 -0 -0 -0 -0 -0 -0 -1 -1 -1 -1 -0 -0 -0 -1 -0 -0 -1 -1 -0 -0 -0 -0 -1 -1 -1 -1 -1 -2 -2 -2 -2 -2 -2 -2 -2 -1 -1 -1 -0 -0 0 0 0 -0 -0 -0 -0 0 0 0 0 0 0 0 0 0 0 0 0 0 1 1 1 1 1 1 0 0
-0 0 0 0 0 0 -0 -1 -2 -2 -1 -0 0 -0 -0 -1 -1 -1 -0 0 0 -0 -0 -1 -1 -1 -1 -1 -1 -1 -1 -1 -2 -2 -1 -1 -0 -0 0 0 0 0 -0 -0 -0 -0 -0 0 0 0 0 0 0 0 0 0 0 0 1 1 1 1 1 1 1 1 1 1 1
-0 0 1 1 1 -0 -1 -2 -2 -1 -1 -0 0 -0 -1 -1 -1 -1 -0 0 0 -0 -1 -1 -1 -0 -0 -0 -0 -0 -0 -1 -2 -2 -1 -0 -0 0 0 -0 -0 -0 -0 -0 -0 -0 0 0 0 0 0 0 0 0 1 1 1 1 1 1 1 1 1 1 1 1 1 1 1
0 1 1 0 -1 -1 -1 -1 -1 -1 -1 -0 0 -0 -1 -1 -1 -0 0 1 0 -0 -1 -1 -0 0 1 0 0 -0 -0 -0 -1 -1 -1 -1 -0 -0 -0 -0 -1 -0 -0 -0 -0 0 0 0 0 0 0 0 1 1 1 1 1 1 1 1 1 1 1 1 1 1 1 1 0
1 1 0 -1 -1 -1 -1 -1 -1 -1 -0 -0 0 0 -1 -1 -1 -0 1 1 -0 -1 -0 0 0 1 1 0 -0 -0 -1 -1 -1 -1 -0 -0 -0 -0 -0 -0 -0 -0 0 0 0 0 0 0 0 0 0 1 1 1 1 1 1 1 1 1 1 1 1 1 1 1 1 0 0
1 1 -0 -1 -1 -1 -1 -2 -1 -0 -0 0 1 0 -1 -1 -0 0 0 0 -0 -0 0 0 0 0 0 -0 -0 -1 -1 -1 -0 -0 0 0 0 0 0 0 0 0 0 0 0 0 0 0 0 0 1 1 1 1 1 1 1 1 1 1 1 1 1 1 1 0 0 0 -0
1 0 -0 -1 -0 -1 -1 -1 -1 -0 0 1 1 0 -0 -0 0 1 0 -0 -0 -0 0 0 0 0 -0 -0 -0 -0 -0 -0 0 0 0 0 1 1 1 1 1 0 0 0 0 0 0 0 0 1 1 1 1 1 1 1 1 1 1 1 1 1 1 1 1 0 0 -0 -0
1 1 0 -0 -0 -0 -1 -1 -0 -0 0 0 0 0 0 1 1 1 0 -0 -0 -0 -0 -0 -0 -0 -0 -0 -0 0 1 1 1 1 1 1 1 1 1 1 0 0 0 0 0 0 0 1 1 1 1 1 1 1 1 0 0 0 1 1 1 1 1 1 0 0 -0 -0 -0
1 1 1 0 0 -0 -1 -1 -0 0 0 0 1 1 1 1 1 1 0 -0 -1 -1 -1 -0 -0 -0 -0 0 1 1 1 1 1 1 1 0 0 0 0 0 0 0 0 0 1 1 1 1 1 1 1 1 0 0 0 -0 0 0 0 0 1 0 0 0 -0 -0 -1 -1 -1
1 1 1 0 0 -0 -0 -0 0 1 1 1 1 1 1 1 0 0 -0 -0 -1 -1 -0 -0 -0 -0 0 1 1 1 1 1 1 1 0 0 0 0 0 0 0 1 1 1 1 1 1 1 1 1 0 0 -0 -0 -0 -0 0 0 0 0 0 0 -0 -0 -1 -1 -1 -1 -1
1 1 1 1 0 0 -0 0 1 1 1 1 1 1 1 0 -0 -0 -0 -0 -0 -0 -0 0 0 0 0 1 1 1 1 1 1 0 0 0 0 0 0 0 1 1 1 1 1 1 1 1 0 0 -0 -0 -0 -0 -0 0 1 1 1 1 0 -0 -0 -0 -1 -1 -1 -1 -1
1 1 1 1 1 0 0 1 1 1 1 1 1 1 0 -0 -0 0 0 0 0 0 0 0 0 0 0 0 0 1 1 1 0 0 -0 -0 0 0 0 1 1 1 1 1 1 0 0 0 -0 -0 -0 -0 -0 0 1 1 1 1 1 0 0 -0 -1 -1 -1 -1 -1 -0 -0
1 1 1 1 1 1 1 1 1 1 1 1 1 0 0 0 0 0 0 0 0 0 0 0 0 0 0 0 1 1 0 0 0 0 -0 -0 0 0 0 1 1 1 0 0 0 -0 -0 -0 -0 -0 0 0 1 1 1 1 1 1 0 -0 -1 -1 -1 -1 -1 -1 -1 -0 -0
1 1 1 1 1 1 1 1 1 1 1 1 0 0 1 0 0 0 0 0 0 0 0 0 0 0 0 0 0 0 0 0 0 0 0 -0 0 0 0 0 0 0 0 0 -0 -0 -0 -0 0 1 1 1 1 1 1 1 0 -0 -0 -1 -1 -1 -1 -1 -1 -0 -0 -0 -0
1 1 1 1 1 1 1 1 1 1 0 0 1 1 1 0 0 0 0 0 0 0 0 0 0 0 0 0 0 0 0 0 0 0 0 -0 0 0 1 0 0 0 0 0 0 0 1 1 1 1 1 1 1 1 1 0 -0 -1 -1 -1 -1 -1 -1 -1 -0 -0 -0 -0 -1
1 1 1 1 1 1 1 1 1 1 1 1 1 1 1 0 0 0 0 0 0 0 0 0 0 0 0 0 0 0 0 1 1 0 0 -0 0 0 1 1 0 0 0 1 1 1 1 1 1 1 1 1 1 0 -0 -0 -1 -1 -1 -1 -1 -1 -0 -0 -0 -0 -0 -0 -0
1 1 1 1 1 1 1 1 1 1 1 1 1 1 1 1 0 0 0 0 0 0 0 0 0 0 1 1 1 1 0 0 0 0 0 0 0 0 0 1 1 1 1 1 1 1 1 1 1 1 1 0 0 -0 -1 -1 -1 -1 -1 -1 -1 -1 -0 -0 -0 -0 -0 -0 -0
1 1 1 1 1 1 1 1 1 1 1 1 1 0 1 1 1 0 -0 -0 -0 -0 0 0 0 0 1 1 1 1 1 0 0 0 0 0 0 0 0 1 1 1 1 1 1 1 1 1 1 1 0 0 -0 -1 -1 -1 -1 -1 -1 -1 -1 -1 -1 -0 -1 -1 -1 -1 -0
1 1 1 1 1 1 1 1 1 1 0 0 0 0 0 1 0 0 -0 -1 -1 -0 0 1 1 1 1 1 1 1 1 0 0 0 0 0 0 0 0 0 1 1 1 1 1 1 1 1 0 -0 -0 -1 -1 -1 -1 -1 -1 -1 -1 -1 -1 -1 -1 -1 -1 -1 -1 -1 -1
1 1 1 1 1 1 1 1 1 1 0 0 0 0 0 0 0 0 -0 -0 -0 -0 0 1 1 1 1 1 1 1 1 0 0 0 1 1 1 0 0 0 1 1 1 0 0 0 0 -0 -0 -1 -1 -2 -1 -1 -1 -0 -0 -0 -0 -0 -0 -0 -1 -1 -1 -1 -1 -2 -2
Height
1517 1517 1517 1517 1517 1517 1517 1518 1518 1518 1518 1519 1519 1519 1519 1519 1519 1520 1520 1520 1520 1520 1520 1520 1520 1520 1520 1520 1520 1521 1521 1521 1522 1522 1522 1523 1523 1524 1524 1525 1525 1525 1526 1526 1527 1527 1528 1528 1529 1529 1529 1529 1529 1529 1530 1530 1530 1531 1531 1532 1532 1532 1532 1532 1532 1532 1532 1532 1532
1516 1516 1516 1516 1516 1516 1516 1517 1517 1517 1517 1517 1518 1518 1518 1518 1518 1519 1519 1519 1519 1519 1519 1519 1519 1519 1519 1519 1519 1520 1520 1520 1520 1521 1521 1522 1522 1523 1523 1524 1524 1524 1525 1525 1526 1526 1526 1526 1527 1527 1527 1528 1528 1528 1528 1529 1529 1529 1530 1530 1530 1530 1531 1531 1531 1531 1531 1531 1531
1516 1516 1516 1516 1516 1516 1516 1516 1516 1516 1516 1516 1516 1517 1517 1517 1517 1517 1517 1518 1518 1518 1518 1518 1518 1519 1519 1519 1519 1519 1519 1519 1519 1520 1520 1521 1521 1521 1522 1522 1523 1524 1524 1524 1524 1524 1524 1524 1525 1525 1526 1526 1527 1527 1527 1527 1528 1528 1529 1529 1529 1529 1529 1529 1530 1530 1530 1530 1529
1515 1515 1515 1515 1515 1515 1515 1515 1515 1515 1515 1515 1515 1516 1516 1516 1516 1516 1516 1517 1517 1517 1517 1517 1518 1518 1518 1518 1518 1518 1518 1519 1519 1519 1519 1520 1520 1521 1521 1521 1522 1523 1523 1523 1523 1523 1523 1523 1524 1524 1525 1525 1525 1525 1526 1526 1526 1527 1527 1527 1528 1528 1528 1528 1528 1528 1528 1528 1528
1514 1514 1514 1514 1514 1514 1514 1514 1514 1514 1514 1514 1514 1515 1515 1515 1515 1515 1515 1516 1516 1516 1516 1516 1517 1517 1517 1517 1517 1518 1518 1518 1518 1519 1519 1519 1519 1520 1520 1521 1521 1521 1522 1522 1522 1522 1523 1523 1524 1524 1524 1524 1524 1524 1524 1525 1525 1525 1526 1526 1526 1526 1527 1527 1527 1526 1526 1526 1527
1513 1513 1513 1513 1513 1514 1514 1514 1514 1514 1514 1514 1514 1514 1514 1514 1514 1514 1514 1515 1515 1515 1515 1516 1516 1516 1516 1516 1517 1517 1517 1517 1517 1518 1518 1519 1519 1519 1519 1520 1520 1520 1520 1520 1521 1521 1521 1522 1522 1522 1523 1523 1523 1524 1524 1524 1524 1524 1524 1524 1524 1525 1525 1525 1525 1525 1525 1525 1524
1512 1512 1512 1512 1513 1513 1513 1513 1513 1513 1513 1513 1513 1513 1513 1513 1513 1514 1514 1514 1514 1514 1514 1515 1515 1515 1515 1516 1516 1516 1516 1516 1517 1517 1517 1518 1518 1518 1518 1519 1519 1519 1519 1519 1519 1520 1520 1520 1520 1521 1521 1522 1522 1522 1523 1523 1523 1523 1523 1523 1524 1524 1524 1524 1524 1524 1524 1523 1523
1511 1511 1511 1512 1512 1512 1512 1512 1512 1512 1512 1512 1512 1512 1512 1512 1513 1513 1513 1513 1513 1514 1514 1514 1514 1514 1514 1515 1515 1515 1515 1515 1516 1516 1516 1516 1517 1517 1517 1517 1517 1518 1518 1518 1518 1519 1519 1519 1519 1520 1520 1521 1521 1521 1522 1522 1522 1522 1522 1523 1523 1523 1522 1522 1522 1522 1522 1522 1521
1510 1510 1511 1511 1511 1511 1511 1511 1511 1511 1511 1511 1511 1511 1511 1512 1512 1512 1512 1512 1512 1513 1513 1513 1513 1513 1514 1514 1514 1514 1514 1514 1515 1515 1515 1515 1515 1516 1516 1516 1516 1517 1517 1517 1518 1518 1518 1518 1519 1519 1519 1519 1520 1520 1520 1521 1521 1521 1521 1521 1521 1521 1521 1520 1520 1520 1520 1520 1519
1509 1509 1510 1510 1510 1510 1510 1510 1510 1510 1510 1510 1510 1511 1511 1511 1511 1511 1511 1511 1511 1512 1512 1512 1512 1512 1513 1513 1513 1513 1513 1514 1514 1514 1514 1514 1514 1514 1514 1515 1515 1515 1516 1516 1517 1517 1517 1517 1518 1518 1518 1519 1519 1519 1519 1519 1519 1519 1519 1519 1519 1519 1519 1519 1519 1519 1518 1518 1518
1508 1509 1509 1509 1509 1509 1509 1509 1509 1509 1509 1509 1509 1510 1510 1510 1510 1510 1510 1510 1511 1511 1511 1511 1511 1511 1511 1512 1512 1512 1512 1513 1513 1513 1513 1513 1513 1513 1514 1514 1514 1514 1515 1515 1515 1516 1516 1516 1517 1517 1517 1517 1517 1517 1517 1517 1518 1517 1517 1517 1517 1517 1517 1517 1517 1517 1516 1516 1516
1507 1508 1508 1508 1508 1508 1508 1508 1508 1509 1509 1509 1509 1509 1509 1509 1509 1509 1509 1509 1509 1510 1510 1510 1510 1510 1511 1511 1511 1511 1511 1512 1512 1512 1512 1512 1512 1512 1513 1513 1513 1514 1514 1514 1514 1514 1515 1515 1515 1515 1516 1516 1516 1516 1516 1516 1516 1516 1516 1515 1515 1515 1515 1515 1515 1515 1515 1515 1515
1506 1506 1506 1507 1507 1507 1507 1507 1507 1507 1507 1507 1507 1508 1508 1508 1508 1508 1508 1508 1509 1509 1509 1509 1509 1509 1509 1510 1510 1510 1510 1511 1511 1511 1511 1511 1511 1511 1512 1512 1512 1513 1513 1513 1513 1513 1514 1514 1514 1514 1514 1514 1514 1514 1514 1514 1514 1514 1514 1514 1514 1514 1514 1514 1514 1514 1514 1514 1514
1504 1505 1505 1505 1505 1505 1506 1506 1506 1506 1506 1506 1506 1506 1506 1507 1507 1507 1507 1507 1507 1508 1508 1508 1508 1508 1509 1509 1509 1509 1509 1509 1509 1509 1509 1510 1510 1510 1510 1510 1511 1511 1511 1511 1512 1512 1512 1512 1512 1512 1513 1512 1512 1512 1512 1512 1512 1512 1512 1513 1513 1513 1513 1513 1513 1513 1513 1513 1512
1503 1503 1504 1504 1504 1504 1504 1504 1504 1504 1505 1505 1505 1505 1505 1505 1505 1505 1506 1506 1506 1506 1506 1507 1507 1507 1507 1507 1508 1508 1508 1508 1508 1508 1508 1508 1509 1509 1509 1509 1509 1509 1509 1510 1510 1510 1510 1510 1511 1511 1511 1511 1511 1511 1511 1511 1511 1511 1511 1511 1511 1511 1511 1511 1511 1511 1511 1511 1511
1502 1502 1502 1502 1503 1503 1503 1503 1503 1503 1504 1504 1504 1504 1504 1504 1504 1504 1504 1504 1505 1505 1505 1505 1505 1505 1506 1506 1506 1506 1506 1506 1507 1507 1507 1507 1507 1507 1508 1508 1508 1508 1508 1508 1508 1509 1509 1509 1509 1509 1509 1509 1509 1509 1509 1509 1509 1509 1510 1510 1510 1510 1510 1510 1510 1510 1510 1510 1510
1500 1500 1501 1501 1501 1501 1501 1502 1502 1502 1502 1502 1502 1503 1503 1503 1503 1503 1503 1503 1504 1504 1504 1504 1504 1504 1504 1504 1504 1505 1505 1505 1505 1505 1505 1506 1506 1506 1506 1506 1506 1506 1506 1507 1507 1507 1507 1507 1507 1508 1508 1508 1508 1508 1508 1508 1508 1508 1509 1509 1509 1509 1509 1509 1509 1509 1509 1509 1509
1499 1499 1499 1499 1499 1500 1500 1500 1500 1500 1501 1501 1501 1501 1501 1501 1501 1502 1502 1502 1502 1503 1503 1503 1503 1503 1503 1503 1503 1503 1503 1504 1504 1504 1504 1504 1504 1504 1505 1505 1505 1505 1505 1505 1505 1505 1505 1506 1506 1506 1506 1506 1507 1507 1507 1507 1507 1507 1507 1507 1508 1508 1508 1508 1508 1508 1507 1507 1507
1497 1497 1498 1498 1498 1499 1499 1499 1499 1499 1499 1499 1499 1500 1500 1500 1500 1500 1500 1501 1501 1501 1501 1501 1501 1501 1501 1501 1502 1502 1502 1502 1502 1502 1502 1503 1503 1503 1503 1503 1503 1503 1504 1504 1504 1504 1504 1504 1504 1505 1505 1505 1505 1505 1506 1506 1506 1506 1506 1506 1506 1506 1506 1506 1506 1506 1506 1506 1506
1496 1496 1496 1496 1497 1497 1497 1497 1497 1498 1498 1498 1498 1498 1499 1499 1499 1499 1499 1499 1499 1500 1500 1500 1500 1500 1500 1500 1500 1500 1500 1500 1501 1501 1501 1501 1501 1501 1501 1502 1502 1502 1502 1502 1502 1503 1503 1503 1503 1504 1504 1504 1504 1504 1504 1504 1505 1505 1505 1505 1505 1505 1505 1505 1505 1505 1505 1505 1505
1494 1494 1494 1495 1495 1495 1496 1496 1496 1496 1496 1497 1497 1497 1497 1498 1498 1498 1498 1498 1498 1499 1499 1499 1499 1499 1499 1499 1499 1499 1499 1499 1499 1499 1499 1499 1500 1500 1500 1500 1500 1501 1501 1501 1501 1502 1502 1502 1502 1503 1503 1503 1503 1503 1503 1504 1504 1504 1504 1504 1504 1504 1504 1504 1505 1505 1505 1505 1504
1492 1493 1493 1494 1494 1494 1494 1494 1494 1495 1495 1495 1496 1496 1496 1496 1496 1497 1497 1497 1497 1497 1497 1497 1497 1497 1497 1497 1497 1497 1498 1498 1498 1498 1498 1498 1498 1499 1499 1499 1499 1500 1500 1500 1500 1501 1501 1501 1501 1501 1502 1502 1502 1502 1503 1503 1503 1503 1503 1503 1503 1504 1504 1504 1504 1504 1504 1504 1504
1491 1491 1492 1492 1493 1493 1493 1493 1493 1494 1494 1494 1494 1495 1495 1495 1495 1495 1495 1496 1496 1496 1496 1496 1496 1496 1496 1496 1496 1496 1497 1497 1497 1497 1497 1497 1497 1498 1498 1498 1499 1499 1499 1499 1499 1500 1500 1500 1500 1501 1501 1501 1501 1502 1502 1502 1502 1502 1502 1503 1503 1503 1503 1503 1503 1503 1503 1503 1503
1489 1490 1490 1491 1491 1491 1491 1492 1492 1492 1493 1493 1493 1494 1494 1494 1494 1494 1494 1494 1494 1494 1494 1494 1495 1495 1495 1495 1495 1496 1496 1496 1496 1496 1496 1496 1497 1497 1497 1498 1498 1498 1498 1499 1499 1499 1499 1499 1500 1500 1500 1500 1501 1501 1501 1501 1501 1502 1502 1502 1502 1502 1502 1502 1502 1502 1502 1503 1503
1488 1489 1489 1489 1489 1489 1490 1490 1490 1491 1491 1492 1492 1492 1492 1492 1493 1493 1493 1493 1493 1493 1493 1494 1494 1494 1494 1495 1495 1495 1495 1495 1495 1495 1496 1496 1496 1497 1497 1497 1497 1498 1498 1498 1498 1499 1499 1499 1499 1499 1500 1500 1500 1500 1500 1501 1501 1501 1501 1501 1502 1502 1502 1502 1502 1502 1502 1502 1502
1487 1487 1488 1488 1488 1488 1489 1489 1489 1490 1490 1491 1491 1491 1491 1491 1491 1492 1492 1492 1492 1492 1493 1493 1493 1494 1494 1494 1494 1494 1494 1495 1495 1495 1496 1496 1496 1496 1496 1497 1497 1497 1497 1498 1498 1498 1499 1499 1499 1499 1499 1499 1499 1500 1500 1500 1501 1501 1501 1501 1501 1501 1501 1501 1501 1501 1502 1502 1502
1485 1486 1486 1486 1487 1487 1487 1488 1488 1489 1489 1489 1490 1490 1490 1490 1490 1491 1491 1491 1491 1492 1492 1493 1493 1493 1493 1494 1494 1494 1494 1494 1495 1495 1495 1495 1496 1496 1496 1496 1496 1497 1497 1497 1498 1498 1498 1498 1499 1499 1499 1499 1499 1499 1500 1500 1500 1500 1500 1500 1500 1501 1501 1501 1501 1501 1502 1502 1502
1484 1484 1485 1485 1485 1486 1486 1486 1487 1487 1488 1488 1489 1489 1489 1489 1489 1490 1490 1490 1491 1491 1492 1492 1492 1493 1493 1493 1493 1494 1494 1494 1494 1494 1495 1495 1495 1495 1496 1496 1496 1496 1497 1497 1497 1497 1498 1498 1498 1498 1499 1499 1499 1499 1499 1500 1500 1500 1500 1500 1500 1500 1500 1501 1501 1501 1501 1502 1502
1483 1483 1484 1484 1484 1484 1485 1485 1486 1486 1487 1487 1487 1488 1488 1489 1489 1489 1489 1490 1490 1491 1491 1492 1492 1492 1492 1493 1493 1493 1494 1494 1494 1494 1494 1494 1495 1495 1495 1495 1496 1496 1496 1497 1497 1497 1497 1498 1498 1498 1499 1499 1499 1499 1499 1499 1499 1499 1500 1500 1500 1500 1500 1501 1501 1501 1501 1501 1501
1482 1482 1483 1483 1483 1484 1484 1484 1485 1485 1486 1486 1486 1487 1487 1488 1488 1489 1489 1489 1490 1490 1491 1491 1491 1491 1492 1492 1492 1493 1493 1493 1494 1494 1494 1494 1494 1494 1495 1495 1495 1496 1496 1496 1497 1497 1497 1498 1498 1498 1499 1499 1499 1499 1499 1499 1499 1499 1499 1499 1500 1500 1500 1500 1500 1500 1500 1500 1500
1481 1481 1482 1482 1482 1482 1483 1483 1484 1484 1485 1485 1486 1486 1487 1487 1488 1488 1489 1489 1489 1490 1490 1490 1491 1491 1491 1492 1492 1492 1493 1493 1493 1494 1494 1494 1494 1494 1495 1495 1495 1495 1496 1496 1497 1497 1497 1498 1498 1498 1498 1499 1499 1499 1499 1499 1499 1499 1499 1499 1499 1499 1499 1499 1499 1499 1499 1499 1499
1480 1481 1481 1481 1481 1482 1482 1482 1483 1484 1484 1484 1485 1485 1486 1486 1487 1488 1488 1489 1489 1489 1489 1490 1490 1490 1491 1491 1491 1492 1492 1493 1493 1493 1494 1494 1494 1494 1494 1495 1495 1495 1496 1496 1497 1497 1497 1498 1498 1498 1498 1498 1498 1498 1498 1498 1499 1499 1499 1499 1499 1499 1499 1499 1499 1499 1499 1499 1499
1479 1480 1480 1480 1480 1481 1481 1482 1482 1483 1483 1484 1484 1485 1485 1486 1486 1487 1488 1488 1488 1489 1489 1489 1490 1490 1490 1491 1491 1491 1492 1492 1493 1493 1493 1494 1494 1494 1495 1495 1495 1496 1496 1496 1497 1497 1497 1497 1498 1498 1498 1498 1498 1498 1498 1498 1498 1498 1498 1498 1498 1498 1498 1498 1498 1498 1498 1498 1498
1479 1479 1479 1479 1480 1480 1480 1481 1482 1482 1483 1483 1484 1484 1485 1485 1486 1486 1487 1487 1488 1488 1489 1489 1489 1490 1490 1491 1491 1491 1492 1492 1493 1493 1493 1494 1494 1494 1495 1495 1495 1496 1496 1496 1497 1497 1497 1497 1497 1497 1497 1497 1497 1498 1498 1498 1498 1498 1498 1498 1498 1497 1497 1497 1497 1497 1497 1497 1496
1478 1478 1479 1479 1479 1479 1480 1480 1481 1481 1482 1482 1483 1484 1484 1485 1485 1486 1486 1487 1487 1488 1488 1489 1489 1489 1490 1490 1491 1491 1492 1492 1493 1493 1494 1494 1494 1495 1495 1495 1496 1496 1496 1496 1497 1497 1497 1497 1497 1497 1497 1497 1497 1497 1497 1497 1497 1497 1497 1497 1497 1497 1496 1496 1496 1496 1496 1495 1495
1477 1477 1478 1478 1478 1479 1479 1480 1480 1481 1481 1482 1482 1483 1484 1484 1485 1485 1486 1486 1487 1487 1488 1488 1489 1489 1490 1490 1491 1491 1492 1492 1493 1493 1494 1494 1494 1495 1495 1495 1496 1496 1496 1496 1496 1496 1496 1497 1497 1497 1497 1497 1497 1497 1497 1497 1497 1497 1496 1496 1496 1496 1495 1495 1495 1495 1495 1495 1494
1476 1477 1477 1477 1478 1478 1479 1479 1480 1480 1481 1481 1482 1482 1483 1484 1484 1485 1486 1486 1487 1487 1488 1488 1489 1489 1490 1490 1491 1491 1492 1493 1493 1493 1494 1494 1494 1495 1495 1495 1495 1496 1496 1496 1496 1496 1496 1496 1496 1496 1496 1496 1496 1496 1496 1496 1496 1496 1495 1495 1495 1495 1494 1494 1494 1494 1494 1494 1494
1476 1476 1476 1477 1477 1477 1478 1479 1479 1480 1480 1481 1481 1482 1483 1483 1484 1485 1485 1486 1487 1487 1488 1488 1489 1489 1490 1491 1491 1492 1492 1493 1493 1494 1494 1494 1494 1495 1495 1495 1495 1495 1495 1496 1496 1496 1496 1496 1496 1496 1496 1496 1496 1496 1496 1496 1495 1495 1495 1494 1494 1494 1494 1494 1494 1494 1494 1494 1494
1475 1475 1476 1476 1476 1477 1477 1478 1479 1479 1480 1480 1481 1482 1482 1483 1484 1484 1485 1486 1487 1487 1488 1489 1489 1489 1490 1491 1491 1492 1492 1493 1493 1494 1494 1494 1494 1494 1495 1495 1495 1495 1495 1495 1495 1495 1496 1496 1496 1496 1496 1496 1496 1495 1495 1495 1494 1494 1494 1494 1494 1494 1493 1493 1493 1493 1493 1493 1493
1474 1475 1475 1476 1476 1476 1477 1478 1478 1479 1479 1480 1481 1481 1482 1483 1484 1484 1485 1486 1486 1487 1488 1489 1489 1490 1490 1491 1492 1492 1493 1493 1493 1494 1494 1494 1494 1494 1494 1495 1495 1495 1495 1495 1495 1495 1495 1496 1496 1496 1495 1495 1495 1495 1494 1494 1494 1494 1494 1493 1493 1493 1493 1493 1493 1492 1492 1492 1492
1474 1474 1474 1475 1475 1476 1477 1477 1478 1479 1479 1480 1480 1481 1482 1483 1484 1484 1485 1486 1486 1487 1488 1489 1489 1490 1490 1491 1492 1492 1493 1493 1493 1493 1494 1494 1494 1494 1494 1494 1495 1495 1495 1495 1495 1495 1495 1495 1495 1495 1495 1495 1494 1494 1494 1494 1494 1494 1493 1493 1493 1493 1493 1492 1492 1492 1492 1492 1491